Location: Newark
(50.5639°N, 7.9725°E)
Time: 08:37:35
(UTC+00:00)

X-37B - Visible Passes

Search period start: 18 September 2020 00:00
Search period end: 28 September 2020 00:00
Orbit: 386 x 387 km, 45.0° (Epoch: 15 September)

Date Brightness Start Highest point End Pass type
(mag) Time Alt. Az. Time Alt. Az. Time Alt. Az.
18 Sep 1.8 03:25:04 28° S 03:25:17 29° S 03:28:06 10° ESE visible
19 Sep 3.5 02:29:10 12° ESE 02:29:10 12° ESE 02:29:34 10° ESE visible
19 Sep 1.8 04:01:27 18° SW 04:03:02 28° S 04:05:50 10° SE visible
20 Sep 2.3 03:05:35 24° SSE 03:05:35 24° SSE 03:07:27 10° ESE visible
21 Sep 1.9 03:42:05 24° SSW 03:42:20 24° SSW 03:45:00 10° SE visible
22 Sep 3.4 02:46:23 12° SE 02:46:23 12° SE 02:46:43 10° SE visible
22 Sep 2.7 04:18:40 12° SW 04:19:58 14° SSW 04:21:47 10° S visible
23 Sep 2.9 03:23:04 15° SSE 03:23:04 15° SSE 03:24:00 10° SSE visible
